Location: Kellogg
(38.0159°N, 90.0546°W)
Time: 03:05:57
(UTC+00:00)

BlueWalker 3 - Pass Details

Date: 03 February 2026
Orbit: 450 x 461 km, 53.2° (Epoch: 14 February)

Event Time Altitude Azimuth Distance (km) Brightness Sun altitude
Rises 00:36:53 0° 323° (NW) 2,458 5.8 -14.5°
Reaches altitude 10° 00:40:51 10° 8° (N) 1,583 4.3 -15.3°
Enters shadow 00:41:26 10° 17° (NNE) 1,562 4.2 -15.4°
